Location: Unspecified
(0.0000°N, 0.0000°E)
Time: 15:18:24
(UTC+00:00)

COSMOS 1275 DEB - Pass Details

Date: 23 February 2026
Orbit: 902 x 1038 km, 83.0° (Epoch: 19 November)

Event Time Altitude Azimuth Distance (km) Brightness Sun altitude
Rises 05:34:39 0° 218° (SW) 3,703 ? -9.5°
Reaches altitude 10° 05:38:26 10° 240° (WSW) 2,728 ? -8.6°
Maximum altitude 05:41:43 15° 272° (W) 2,373 ? -7.8°
Drops below altitude 10° 05:44:58 10° 305° (NW) 2,679 ? -7.0°
Sets 05:48:40 0° 328° (NNW) 3,595 ? -6.1°
